Powrót do katalogu

COSMOS 1275 DEB

AktywnyPO
NORAD 12741·DEBRIS·🇷🇺 Russia

Wystrzelony Jun 4, 1981 z Plesetsk Cosmodrome

Loading…

Następne Przeloty (najbliższe 24 godziny)

TLE

ŚwieżeSource: Space-Track

Epoka: Sep 14, 2026, 10:57 UTC

1 12741U 81053CJ  26257.45668494  .00000449  00000-0  34175-3 0  9990
2 12741  82.9444  63.0718 0066040 173.6791 215.7040 13.90573215273268

Śledź COSMOS 1275 DEB w czasie rzeczywistym z AllMySat

Download on the App Store